| time (UTC) | temp F | wind direction | speed knots | gust knots | rain 1hr in | rain 24hr in | rain mn in | humidity % | barometer mb |
| 20260831042004 | 72 | 119 | 0.0 | 1.7 | 0.00 | 0.00 | 0.00 | 93 | 1017.0 |
| 20260831040004 | 72 | 84 | 0.0 | 1.7 | 0.00 | 0.00 | 0.00 | 93 | 1017.1 |
| 20260831035004 | 72 | 103 | 0.9 | 0.9 | 0.00 | 0.00 | 0.00 | 93 | 1017.1 |
| 20260831034003 | 72 | 94 | 0.9 | 1.7 | 0.00 | 0.00 | 0.00 | 93 | 1017.3 |
| 20260831033004 | 72 | 84 | 0.9 | 2.6 | 0.00 | 0.00 | 0.00 | 92 | 1017.2 |
| 20260831032004 | 72 | 103 | 0.9 | 1.7 | 0.00 | 0.00 | 0.00 | 92 | 1017.1 |
| 20260831030004 | 72 | 124 | 0.9 | 1.7 | 0.00 | 0.00 | 0.00 | 91 | 1017.0 |
| 20260831025004 | 72 | 95 | 0.0 | 1.7 | 0.00 | 0.00 | 0.00 | 91 | 1017.0 |
| 20260831022003 | 73 | 72 | 1.7 | 4.3 | 0.00 | 0.00 | 0.00 | 89 | 1016.9 |
| 20260831021004 | 73 | 83 | 0.9 | 5.2 | 0.00 | 0.00 | 0.00 | 88 | 1016.8 |
| 20260831020004 | 73 | 80 | 1.7 | 4.3 | 0.00 | 0.00 | 0.00 | 88 | 1016.5 |
| 20260831014004 | 73 | 113 | 0.9 | 1.7 | 0.00 | 0.00 | 0.00 | 88 | 1016.5 |
| 20260831013004 | 74 | 92 | 0.9 | 1.7 | 0.00 | 0.00 | 0.00 | 87 | 1016.8 |
| 20260831012003 | 74 | 126 | 0.9 | 2.6 | 0.00 | 0.00 | 0.00 | 87 | 1016.8 |
| 20260831011004 | 74 | 86 | 2.6 | 4.3 | 0.00 | 0.00 | 0.00 | 87 | 1016.5 |
| 20260831010004 | 74 | 84 | 1.7 | 2.6 | 0.00 | 0.00 | 0.00 | 88 | 1016.4 |
| 20260831005004 | 74 | 73 | 0.9 | 2.6 | 0.00 | 0.00 | 0.00 | 89 | 1016.3 |
| 20260831003004 | 75 | 115 | 0.9 | 2.6 | 0.00 | 0.00 | 0.00 | 88 | 1016.2 |
| 20260831002004 | 75 | 40 | 1.7 | 5.2 | 0.00 | 0.00 | 0.00 | 89 | 1016.1 |
| 20260831000003 | 75 | 2 | 2.6 | 5.2 | 0.00 | 0.00 | 0.00 | 88 | 1016.2 |
| 20260830235003 | 76 | 19 | 2.6 | 5.2 | 0.00 | 0.00 | 0.00 | 87 | 1016.0 |
| 20260830234004 | 76 | 340 | 0.9 | 4.3 | 0.00 | 0.00 | 0.00 | 86 | 1015.7 |
| 20260830233004 | 76 | 35 | 1.7 | 1.7 | 0.00 | 0.00 | 0.00 | 86 | 1015.8 |
| 20260830232004 | 76 | 39 | 2.6 | 4.3 | 0.00 | 0.00 | 0.00 | 86 | 1016.0 |
| 20260830231004 | 76 | 21 | 1.7 | 4.3 | 0.00 | 0.00 | 0.00 | 86 | 1015.4 |
| 20260830230003 | 76 | 24 | 3.5 | 5.2 | 0.00 | 0.00 | 0.00 | 86 | 1015.5 |
| 20260830225003 | 76 | 29 | 2.6 | 7.0 | 0.00 | 0.00 | 0.00 | 85 | 1015.6 |
| 20260830224004 | 76 | 353 | 2.6 | 5.2 | 0.00 | 0.00 | 0.00 | 84 | 1015.4 |
| 20260830222003 | 77 | 31 | 1.7 | 5.2 | 0.00 | 0.00 | 0.00 | 81 | 1015.1 |
| 20260830221004 | 77 | 46 | 1.7 | 5.2 | 0.00 | 0.00 | 0.00 | 80 | 1015.0 |
| 20260830220004 | 77 | 8 | 2.6 | 6.1 | 0.00 | 0.00 | 0.00 | 79 | 1015.0 |
| 20260830214003 | 77 | 7 | 2.6 | 7.0 | 0.00 | 0.00 | 0.00 | 78 | 1015.1 |
| 20260830213004 | 78 | 21 | 1.7 | 6.1 | 0.00 | 0.00 | 0.00 | 78 | 1015.3 |
| 20260830211004 | 77 | 11 | 3.5 | 6.1 | 0.00 | 0.00 | 0.00 | 78 | 1015.3 |
| 20260830210004 | 77 | 66 | 1.7 | 4.3 | 0.00 | 0.00 | 0.00 | 79 | 1015.6 |
| 20260830205003 | 77 | 33 | 1.7 | 2.6 | 0.00 | 0.00 | 0.00 | 78 | 1015.8 |
| 20260830203004 | 78 | 39 | 2.6 | 4.3 | 0.00 | 0.01 | 0.00 | 78 | 1015.7 |
| 20260830202004 | 79 | 3 | 0.9 | 4.3 | 0.00 | 0.01 | 0.00 | 76 | 1015.4 |
| 20260830201004 | 79 | 63 | 1.7 | 2.6 | 0.00 | 0.02 | 0.00 | 76 | 1015.5 |
| 20260830200004 | 82 | 30 | 2.6 | 2.6 | 0.00 | 0.02 | 0.00 | 69 | 1015.0 |
| 20260830194004 | 82 | 30 | 2.6 | 2.6 | 0.00 | 0.02 | 0.00 | 69 | 1015.0 |
| 20260830193003 | 82 | 30 | 2.6 | 2.6 | 0.00 | 0.02 | 0.00 | 69 | 1015.0 |
| 20260830192003 | 82 | 30 | 2.6 | 2.6 | 0.00 | 0.02 | 0.00 | 69 | 1015.0 |
| 20260830191003 | 82 | 30 | 2.6 | 2.6 | 0.00 | 0.02 | 0.00 | 69 | 1015.0 |
| 20260830190003 | 82 | 30 | 2.6 | 2.6 | 0.00 | 0.02 | 0.00 | 69 | 1015.0 |
| 20260830185003 | 82 | 30 | 2.6 | 2.6 | 0.00 | 0.03 | 0.00 | 69 | 1015.0 |
| 20260830184004 | 82 | 30 | 2.6 | 2.6 | 0.00 | 0.03 | 0.00 | 69 | 1015.0 |
| 20260830182003 | 82 | 30 | 2.6 | 2.6 | 0.00 | 0.03 | 0.00 | 69 | 1015.0 |
| 20260830181003 | 82 | 30 | 2.6 | 6.1 | 0.00 | 0.03 | 0.00 | 69 | 1015.0 |
| 20260830180004 | 83 | 267 | 2.6 | 7.0 | 0.00 | 0.03 | 0.00 | 68 | 1015.0 |
| 20260830175004 | 85 | 286 | 2.6 | 7.0 | 0.00 | 0.04 | 0.00 | 62 | 1015.2 |
| 20260830174004 | 84 | 319 | 0.9 | 5.2 | 0.00 | 0.04 | 0.00 | 63 | 1015.2 |
| 20260830173004 | 84 | 288 | 1.7 | 5.2 | 0.00 | 0.04 | 0.00 | 63 | 1015.1 |
| 20260830171003 | 82 | 243 | 2.6 | 7.8 | 0.00 | 0.04 | 0.00 | 66 | 1015.2 |
| 20260830165004 | 80 | 0 | 1.7 | 5.2 | 0.00 | 0.04 | 0.00 | 71 | 1015.6 |
| 20260830163004 | 79 | 285 | 1.7 | 6.1 | 0.00 | 0.04 | 0.00 | 72 | 1015.5 |
| 20260830162003 | 80 | 299 | 3.5 | 5.2 | 0.00 | 0.04 | 0.00 | 72 | 1015.9 |
| 20260830161004 | 78 | 204 | 2.6 | 7.0 | 0.00 | 0.05 | 0.00 | 74 | 1016.1 |
| 20260830160003 | 78 | 208 | 2.6 | 5.2 | 0.00 | 0.06 | 0.00 | 75 | 1016.1 |
| 20260830153004 | 77 | 210 | 2.6 | 6.1 | 0.00 | 0.06 | 0.00 | 77 | 1016.1 |
| 20260830152003 | 76 | 192 | 2.6 | 7.0 | 0.00 | 0.06 | 0.00 | 78 | 1015.9 |
| 20260830151004 | 76 | 200 | 4.3 | 6.1 | 0.00 | 0.06 | 0.00 | 78 | 1016.3 |
| 20260830150003 | 76 | 228 | 1.7 | 7.8 | 0.00 | 0.06 | 0.00 | 79 | 1016.2 |
| 20260830145004 | 75 | 207 | 1.7 | 6.1 | 0.00 | 0.06 | 0.00 | 79 | 1016.1 |
| 20260830144004 | 75 | 202 | 3.5 | 6.1 | 0.00 | 0.06 | 0.00 | 79 | 1016.1 |
| 20260830143004 | 74 | 119 | 1.7 | 4.3 | 0.00 | 0.06 | 0.00 | 81 | 1015.9 |
| 20260830141004 | 74 | 122 | 1.7 | 7.8 | 0.00 | 0.06 | 0.00 | 83 | 1016.0 |
| 20260830140003 | 73 | 183 | 2.6 | 5.2 | 0.00 | 0.06 | 0.00 | 83 | 1016.4 |
| 20260830135003 | 73 | 159 | 2.6 | 5.2 | 0.00 | 0.06 | 0.00 | 84 | 1016.5 |
| 20260830134004 | 72 | 171 | 1.7 | 2.6 | 0.00 | 0.06 | 0.00 | 86 | 1016.8 |
| 20260830133004 | 72 | 112 | 1.7 | 4.3 | 0.00 | 0.06 | 0.00 | 86 | 1016.4 |
| 20260830132004 | 71 | 149 | 2.6 | 2.6 | 0.00 | 0.06 | 0.00 | 86 | 1016.7 |
| 20260830131004 | 71 | 179 | 2.6 | 4.3 | 0.00 | 0.06 | 0.00 | 87 | 1016.8 |
| 20260830130004 | 71 | 112 | 0.9 | 4.3 | 0.00 | 0.06 | 0.00 | 87 | 1016.6 |
| 20260830124004 | 70 | 129 | 1.7 | 2.6 | 0.00 | 0.06 | 0.00 | 88 | 1016.7 |
| 20260830123003 | 70 | 128 | 2.6 | 4.3 | 0.00 | 0.06 | 0.00 | 88 | 1016.6 |
| 20260830122004 | 70 | 122 | 1.7 | 7.0 | 0.00 | 0.06 | 0.00 | 88 | 1016.4 |
| 20260830121003 | 70 | 159 | 2.6 | 6.1 | 0.00 | 0.06 | 0.00 | 88 | 1016.5 |
| 20260830120004 | 69 | 134 | 2.6 | 5.2 | 0.00 | 0.06 | 0.00 | 89 | 1016.5 |
| 20260830115004 | 69 | 117 | 1.7 | 2.6 | 0.00 | 0.06 | 0.00 | 90 | 1016.4 |
| 20260830114003 | 69 | 107 | 0.9 | 4.3 | 0.00 | 0.06 | 0.00 | 90 | 1016.2 |
| 20260830113004 | 69 | 105 | 2.6 | 6.1 | 0.00 | 0.06 | 0.00 | 90 | 1016.1 |
| 20260830112004 | 69 | 99 | 1.7 | 5.2 | 0.00 | 0.06 | 0.00 | 90 | 1016.2 |
| 20260830111004 | 69 | 128 | 2.6 | 5.2 | 0.00 | 0.06 | 0.00 | 90 | 1016.0 |
| 20260830110005 | 69 | 143 | 1.7 | 4.3 | 0.00 | 0.06 | 0.00 | 90 | 1016.0 |
| 20260830105004 | 69 | 78 | 1.7 | 4.3 | 0.00 | 0.06 | 0.00 | 89 | 1016.1 |
| 20260830104004 | 70 | 110 | 0.9 | 4.3 | 0.00 | 0.06 | 0.00 | 89 | 1015.9 |
| 20260830103003 | 70 | 101 | 0.9 | 4.3 | 0.00 | 0.06 | 0.00 | 88 | 1016.1 |
| 20260830102004 | 70 | 146 | 1.7 | 4.3 | 0.00 | 0.06 | 0.00 | 88 | 1015.8 |
| 20260830101004 | 70 | 127 | 2.6 | 5.2 | 0.00 | 0.06 | 0.00 | 88 | 1016.0 |
| 20260830100004 | 70 | 130 | 1.7 | 4.3 | 0.00 | 0.06 | 0.00 | 88 | 1016.0 |
| 20260830095004 | 70 | 166 | 3.5 | 5.2 | 0.00 | 0.06 | 0.00 | 88 | 1016.1 |
| 20260830094003 | 70 | 42 | 2.6 | 5.2 | 0.00 | 0.06 | 0.00 | 88 | 1016.5 |
| 20260830093003 | 70 | 135 | 1.7 | 5.2 | 0.00 | 0.06 | 0.00 | 88 | 1016.5 |
| 20260830092004 | 70 | 128 | 0.9 | 5.2 | 0.00 | 0.06 | 0.00 | 89 | 1016.8 |
| 20260830090004 | 70 | 120 | 2.6 | 5.2 | 0.00 | 0.06 | 0.00 | 89 | 1016.7 |
| 20260830085003 | 70 | 113 | 2.6 | 4.3 | 0.00 | 0.06 | 0.00 | 89 | 1016.7 |
| 20260830084003 | 70 | 132 | 1.7 | 5.2 | 0.00 | 0.06 | 0.00 | 88 | 1016.9 |
| 20260830083004 | 70 | 140 | 1.7 | 6.1 | 0.00 | 0.06 | 0.00 | 88 | 1016.8 |
| 20260830081004 | 70 | 157 | 1.7 | 5.2 | 0.00 | 0.06 | 0.00 | 88 | 1016.7 |
| 20260830080004 | 70 | 154 | 1.7 | 4.3 | 0.00 | 0.06 | 0.00 | 90 | 1016.8 |
| 20260830075004 | 70 | 157 | 1.7 | 4.3 | 0.00 | 0.06 | 0.00 | 90 | 1016.9 |
| 20260830074003 | 70 | 127 | 1.7 | 6.1 | 0.00 | 0.06 | 0.00 | 90 | 1016.8 |
| 20260830073004 | 70 | 135 | 1.7 | 4.3 | 0.00 | 0.06 | 0.00 | 90 | 1017.1 |
| 20260830071004 | 71 | 120 | 1.7 | 4.3 | 0.00 | 0.06 | 0.00 | 88 | 1017.1 |
| 20260830065004 | 71 | 135 | 2.6 | 6.1 | 0.00 | 0.06 | 0.00 | 86 | 1017.3 |
| 20260830063004 | 72 | 133 | 2.6 | 7.0 | 0.00 | 0.06 | 0.00 | 84 | 1017.6 |
| 20260830061003 | 72 | 179 | 2.6 | 6.1 | 0.00 | 0.06 | 0.00 | 83 | 1017.5 |
| 20260830060004 | 72 | 129 | 2.6 | 6.1 | 0.00 | 0.06 | 0.00 | 83 | 1017.6 |
| 20260830055004 | 72 | 130 | 1.7 | 6.1 | 0.00 | 0.06 | 0.00 | 84 | 1017.4 |
| 20260830054004 | 72 | 158 | 1.7 | 5.2 | 0.00 | 0.06 | 0.00 | 84 | 1017.7 |
| 20260830053004 | 72 | 152 | 1.7 | 5.2 | 0.00 | 0.06 | 0.00 | 84 | 1017.6 |
| 20260830052004 | 72 | 126 | 2.6 | 6.1 | 0.00 | 0.06 | 0.00 | 84 | 1017.8 |
| 20260830051004 | 72 | 117 | 1.7 | 6.1 | 0.00 | 0.06 | 0.00 | 85 | 1018.0 |
| 20260830050003 | 72 | 120 | 1.7 | 5.2 | 0.00 | 0.06 | 0.00 | 85 | 1018.1 |
| 20260830045004 | 71 | 140 | 1.7 | 6.1 | 0.00 | 0.06 | 0.06 | 86 | 1018.1 |
| 20260830044004 | 71 | 142 | 1.7 | 4.3 | 0.00 | 0.06 | 0.06 | 86 | 1018.1 |
| 20260830043004 | 71 | 137 | 2.6 | 6.1 | 0.00 | 0.06 | 0.06 | 87 | 1018.1 |